カタログに戻る

USA 326

運用中ナビゲーションSSO
NORAD 51445·PAYLOAD·🇺🇸 United States

打ち上げ Feb 2, 2022 から Vandenberg Space Force Base

Loading…

次のパス (今後24時間)

TLE

古いSource: Mike McCants

元期: Aug 31, 2026, 22:54 UTC

1 51445U 22009A   26243.95437690 0.00004436  00000-0  19620-3 0    03
2 51445  97.3970 338.7397 0003584 320.4864  39.5504 15.21727995    07

AllMySatでUSA 326をリアルタイム追跡

Download on the App Store